Wind_Speed
62 64 65 65 64 61 61 60 61 64 62 57 54 55 56 54 53 52 51 52 51 49 49 48 46 43 38 35 38 37 43 41 59 82 85 84 93 86 95 81 80 77 79
61 67 68 66 65 66 66 66 69 70 67 62 60 60 61 62 59 56 55 56 56 54 52 50 49 47 45 42 40 40 42 49 51 57 94 95 101 94 93 88 76 85 79
69 67 69 70 72 72 71 72 72 72 71 66 65 65 66 65 63 61 59 59 61 62 61 59 55 52 52 49 48 47 45 46 53 57 62 64 103 97 98 105 89 75 73
73 71 75 78 77 75 74 75 76 77 75 71 72 72 72 72 71 70 71 72 71 69 68 66 66 63 59 57 56 54 51 51 51 56 65 64 74 98 101 102 104 104 85
79 79 83 82 81 79 81 83 81 78 76 74 71 73 76 76 76 77 78 79 79 80 80 78 74 72 71 67 66 63 62 59 56 57 60 68 68 84 97 101 105 102 95
85 86 86 84 83 85 84 82 81 80 79 78 80 83 86 87 86 87 88 88 88 89 88 87 86 84 80 78 75 74 71 70 68 64 60 69 75 76 81 95 92 93 99
85 83 83 84 84 82 84 84 86 87 90 89 90 91 94 97 99 99 99 98 99 99 97 95 93 92 91 89 86 84 82 80 78 76 74 69 79 80 79 81 85 88 92
82 84 85 84 86 88 89 89 90 92 95 96 97 99 99 102 105 109 110 111 112 110 108 107 105 103 102 100 97 95 93 91 88 86 85 84 78 81 86 84 84 87 86
84 85 86 89 91 92 93 95 96 97 102 108 111 113 114 113 114 116 117 118 117 114 114 115 115 115 115 113 112 108 103 102 100 98 95 93 91 86 83 86 88 94 90
87 89 90 91 94 95 98 101 106 111 113 116 119 123 126 128 128 124 123 124 125 124 122 124 122 115 119 124 124 122 119 114 111 109 106 104 100 98 92 87 85 86 91
84 86 89 93 98 103 107 110 116 120 122 127 129 131 134 134 130 124 114 117 115 116 116 117 117 114 109 106 112 126 130 127 125 122 118 116 112 109 103 99 97 92 91
86 91 95 100 105 110 112 119 124 128 130 135 135 133 130 124 124 120 112 103 102 104 102 103 104 107 106 104 101 104 112 124 134 133 130 126 123 119 113 112 106 103 98
91 95 102 107 112 117 120 126 130 131 126 125 122 121 120 117 114 109 101 94 88 89 88 89 90 92 95 94 95 98 102 105 113 125 135 135 132 128 122 120 117 111 107
97 103 109 114 119 121 123 127 124 120 119 115 112 110 104 100 95 91 87 82 77 76 77 80 81 83 86 86 86 90 96 102 106 114 123 131 134 133 130 126 125 121 116
105 110 112 116 118 117 119 118 116 111 112 109 104 98 92 88 85 80 75 72 69 66 70 74 74 74 76 80 80 83 87 93 99 105 117 123 128 133 135 131 129 129 124
106 111 112 114 117 116 114 114 114 108 102 96 92 88 84 79 77 73 70 67 65 61 60 70 73 71 69 73 73 77 81 87 90 97 104 114 122 128 130 134 133 133 133
116 116 117 117 114 117 116 113 105 100 94 90 85 82 78 75 73 70 66 63 61 57 53 63 67 71 68 67 67 69 75 80 83 88 93 102 111 119 123 129 135 137 135
120 122 117 117 117 116 110 102 97 93 90 85 81 77 75 71 69 66 63 60 57 53 49 52 63 66 66 62 64 63 68 73 76 80 85 91 99 107 114 121 127 135 139
123 120 120 119 116 109 100 95 91 88 84 79 75 72 69 67 65 62 59 56 53 53 49 46 58 60 62 60 60 59 62 66 70 73 77 84 90 97 103 111 116 123 133
122 121 121 117 109 100 94 90 86 82 77 72 69 67 65 62 59 58 56 54 51 49 46 45 49 54 56 55 55 56 54 59 65 67 70 77 84 90 96 100 104 114 123
124 123 118 111 100 94 89 85 80 76 72 69 65 63 61 58 56 54 52 52 50 48 46 44 45 48 50 51 47 50 52 52 60 64 67 71 77 83 89 95 99 103 109
121 115 109 99 93 88 83 79 75 73 69 64 61 62 60 57 56 53 51 48 47 47 44 41 42 45 46 48 45 45 50 50 53 60 63 66 71 77 83 89 90 95 105
116 108 97 93 88 83 78 74 71 68 64 60 58 59 57 54 51 49 46 44 42 42 41 40 40 42 42 41 42 42 44 46 50 55 60 65 67 71 76 81 82 88 96
110 100 92 87 83 78 73 70 67 65 61 56 53 54 51 50 48 47 45 41 39 37 36 34 34 36 39 38 38 37 39 44 47 53 56 60 62 64 68 73 78 85 88
102 96 89 84 78 73 69 67 65 64 60 55 51 50 48 46 45 43 40 38 35 34 33 32 32 31 32 34 33 35 39 41 41 45 51 55 56 56 62 67 73 79 83
98 90 84 78 73 69 66 64 63 61 59 55 51 49 45 43 40 38 35 32 30 30 30 29 28 28 28 29 31 31 33 33 34 39 50 49 48 53 56 61 66 72 77
Wind_Direction
295 297 298 299 298 299 299 297 298 300 299 295 290 287 288 289 289 288 286 286 286 286 286 285 285 281 272 264 251 250 246 231 219 215 220 218 215 217 215 221 236 229 234
296 299 298 299 299 299 298 297 297 299 300 295 292 289 288 288 288 287 285 283 283 281 280 278 278 279 274 263 255 252 247 241 237 227 223 222 226 221 219 221 228 231 232
299 297 295 297 297 296 295 295 295 295 295 291 288 290 289 288 288 287 286 285 284 281 279 274 269 269 270 268 261 251 245 242 240 236 226 233 228 228 223 222 224 224 227
294 293 294 295 293 291 291 292 292 291 290 288 286 286 286 285 284 283 283 283 282 280 277 273 269 265 262 261 261 257 253 244 239 239 231 229 230 229 229 228 227 233 239
291 291 291 291 290 290 291 290 289 288 286 285 284 284 284 284 284 283 282 280 279 279 278 274 267 263 262 261 257 253 253 252 245 236 236 233 229 230 230 229 234 237 239
286 287 288 287 288 289 291 291 289 286 285 286 285 286 286 285 285 285 282 279 277 275 273 272 271 268 261 257 256 254 250 248 249 244 236 232 229 231 229 231 232 235 238
288 287 288 290 291 291 291 290 289 288 288 287 286 285 285 285 284 283 282 281 278 275 272 269 266 264 264 261 256 251 251 248 245 244 243 239 232 228 230 232 231 233 234
291 293 292 291 291 291 290 289 289 289 289 288 287 285 283 282 282 281 280 279 276 273 269 265 263 261 259 256 256 254 251 247 244 241 242 242 239 232 229 231 231 233 231
291 292 292 291 291 292 292 291 289 288 288 289 288 287 285 285 284 284 284 283 279 275 270 265 261 257 253 251 251 249 250 250 247 243 238 239 240 237 232 230 231 231 233
292 292 291 291 291 290 291 292 294 293 293 295 297 296 295 292 289 285 281 278 277 275 272 271 268 262 254 248 245 244 245 244 246 246 241 236 236 238 236 231 232 234 231
294 295 295 296 298 299 299 302 303 302 298 295 294 292 290 289 288 286 283 280 277 274 272 270 267 265 263 257 251 247 243 241 241 241 242 239 236 232 234 235 230 231 233
299 301 302 302 303 305 303 302 300 296 295 293 292 292 292 291 288 289 289 286 282 279 274 269 266 264 260 257 253 248 244 241 241 240 237 237 237 234 229 231 232 230 229
305 304 303 302 301 300 299 299 296 295 295 293 292 290 289 290 289 288 287 284 281 277 274 271 268 264 261 257 252 249 246 240 238 238 238 235 234 234 231 229 229 230 232
302 302 303 302 302 301 302 301 300 299 297 296 295 294 294 292 289 288 286 284 280 276 274 270 266 263 262 258 254 249 244 242 237 234 235 236 235 234 233 230 228 227 227
304 304 305 304 304 303 301 303 302 302 301 300 299 298 297 294 292 290 287 284 281 278 276 271 267 264 260 258 254 251 246 242 239 236 233 232 234 233 232 231 229 226 226
308 309 309 308 307 308 308 307 306 305 302 301 301 300 299 296 293 290 288 285 280 275 272 271 269 264 259 256 252 250 248 245 241 237 234 233 233 233 231 231 231 228 224
315 315 314 313 312 313 312 311 308 307 306 305 304 302 299 297 295 293 290 287 284 279 272 270 267 266 261 256 252 247 247 245 243 240 236 234 233 232 232 230 229 230 228
319 318 316 316 317 315 313 311 309 309 307 306 305 302 300 298 296 295 293 291 287 281 272 267 266 263 262 257 254 248 245 245 243 240 239 236 233 233 232 231 228 229 230
320 319 318 318 317 315 313 312 311 309 308 306 304 302 300 298 297 296 294 291 288 284 278 267 264 262 261 259 256 250 243 243 242 239 237 236 235 234 233 231 230 229 228
320 320 320 319 317 315 314 312 311 309 308 306 305 303 301 301 300 298 295 292 288 284 279 271 263 263 262 258 255 253 246 241 241 239 236 234 234 234 234 232 231 230 229
320 320 320 319 317 316 315 313 312 309 309 309 308 305 304 303 301 298 295 293 290 285 280 275 270 266 263 263 257 254 248 238 239 237 235 232 232 232 232 233 231 230 231
320 321 321 318 317 316 315 314 312 311 310 311 310 306 305 303 301 299 296 292 288 284 280 275 270 267 263 261 258 254 250 240 234 236 236 232 230 230 230 231 232 230 231
322 322 321 319 318 317 316 314 312 310 311 311 309 306 306 306 304 302 299 295 291 285 281 274 268 264 262 258 253 249 250 245 234 232 233 233 230 230 229 230 229 230 230
323 323 322 320 319 317 316 314 312 312 312 313 310 307 307 307 305 301 298 294 290 286 282 278 271 263 260 255 250 242 242 240 235 232 234 233 232 229 231 230 228 229 228
324 323 322 321 319 318 316 316 315 314 315 316 313 310 311 308 307 303 300 295 289 286 283 279 272 264 259 254 246 239 236 236 234 234 236 234 234 232 229 229 229 229 229
325 323 322 320 319 318 317 317 315 316 316 317 315 314 315 312 309 304 301 295 288 284 281 276 269 263 255 250 245 238 238 237 231 229 234 234 232 233 231 229 230 231 231
Height
10644 10640 10635 10632 10629 10625 10621 10618 10615 10613 10611 10607 10605 10603 10601 10602 10601 10599 10597 10596 10597 10598 10598 10599 10599 10601 10604 10604 10606 10608 10609 10611 10615 10621 10625 10631 10636 10645 10652 10659 10662 10665 10670
10634 10629 10623 10618 10614 10611 10608 10604 10600 10598 10595 10592 10588 10586 10585 10584 10584 10585 10585 10584 10584 10584 10585 10586 10588 10589 10590 10592 10594 10596 10599 10602 10606 10610 10615 10617 10623 10632 10637 10648 10650 10652 10657
10624 10617 10611 10607 10602 10598 10595 10592 10589 10586 10583 10579 10575 10570 10567 10565 10565 10565 10567 10568 10568 10568 10570 10571 10571 10573 10575 10578 10580 10582 10583 10586 10590 10594 10599 10600 10604 10614 10620 10629 10636 10640 10645
10614 10606 10599 10593 10589 10585 10582 10579 10576 10571 10567 10564 10560 10556 10552 10548 10549 10549 10548 10547 10548 10549 10549 10551 10552 10553 10556 10560 10562 10566 10568 10570 10571 10576 10581 10584 10586 10595 10601 10611 10618 10623 10628
10601 10595 10588 10581 10575 10571 10567 10563 10559 10555 10551 10548 10544 10540 10533 10530 10531 10529 10529 10527 10525 10524 10524 10526 10529 10532 10535 10538 10543 10546 10549 10552 10557 10559 10563 10567 10571 10575 10581 10590 10597 10603 10610
10587 10581 10574 10567 10562 10557 10551 10546 10539 10533 10531 10529 10523 10518 10511 10505 10506 10506 10504 10505 10505 10504 10501 10498 10499 10503 10509 10513 10518 10522 10527 10531 10535 10541 10546 10550 10555 10561 10566 10571 10578 10585 10591
10568 10561 10556 10551 10545 10539 10533 10526 10518 10511 10505 10504 10502 10498 10491 10483 10480 10476 10473 10474 10472 10471 10470 10473 10474 10474 10475 10481 10488 10494 10500 10506 10512 10517 10522 10529 10534 10541 10546 10551 10557 10566 10573
10548 10542 10536 10531 10524 10517 10510 10505 10499 10490 10483 10479 10475 10470 10467 10460 10451 10441 10437 10435 10431 10430 10430 10429 10434 10438 10443 10447 10451 10458 10466 10475 10483 10491 10497 10502 10509 10517 10525 10531 10535 10542 10551
10531 10524 10519 10512 10504 10496 10488 10482 10473 10465 10457 10445 10439 10429 10424 10422 10415 10405 10395 10385 10381 10383 10379 10378 10383 10389 10395 10402 10410 10419 10427 10435 10448 10459 10469 10476 10481 10490 10499 10507 10515 10523 10530
10515 10508 10500 10492 10482 10474 10464 10454 10443 10433 10424 10410 10391 10378 10370 10364 10358 10360 10354 10343 10333 10329 10328 10324 10319 10328 10336 10348 10359 10373 10386 10396 10405 10417 10432 10443 10452 10462 10471 10482 10491 10499 10506
10498 10488 10477 10465 10454 10442 10433 10420 10401 10390 10381 10367 10356 10346 10333 10319 10305 10297 10303 10296 10292 10287 10281 10275 10273 10278 10283 10293 10314 10326 10338 10348 10361 10374 10387 10401 10416 10429 10447 10452 10461 10474 10481
10477 10465 10452 10440 10426 10410 10399 10385 10371 10360 10346 10330 10314 10299 10286 10275 10263 10251 10247 10248 10243 10235 10233 10230 10227 10228 10234 10245 10261 10273 10288 10301 10315 10328 10343 10357 10372 10390 10410 10418 10433 10444 10456
10454 10442 10429 10416 10402 10388 10374 10355 10339 10324 10312 10293 10280 10262 10247 10234 10222 10210 10206 10206 10205 10195 10192 10188 10187 10188 10191 10204 10219 10229 10239 10253 10269 10282 10298 10314 10330 10349 10370 10383 10399 10416 10429
10437 10424 10409 10390 10373 10357 10338 10319 10302 10283 10262 10250 10236 10222 10208 10194 10185 10178 10172 10169 10169 10164 10159 10155 10153 10153 10157 10166 10177 10188 10198 10209 10225 10240 10253 10268 10289 10310 10329 10346 10364 10383 10396
10417 10401 10386 10365 10344 10331 10308 10285 10264 10250 10228 10211 10195 10182 10173 10162 10152 10147 10143 10139 10139 10140 10130 10122 10123 10125 10129 10133 10143 10152 10162 10174 10187 10202 10213 10229 10246 10266 10290 10307 10327 10346 10366
10394 10374 10354 10332 10311 10290 10270 10250 10226 10210 10194 10180 10167 10154 10143 10134 10124 10119 10116 10113 10112 10116 10114 10097 10093 10096 10103 10105 10115 10123 10131 10140 10153 10167 10181 10195 10208 10224 10248 10269 10289 10308 10328
10359 10336 10317 10296 10273 10251 10227 10209 10190 10173 10159 10148 10138 10127 10116 10107 10098 10093 10091 10087 10086 10088 10092 10077 10071 10067 10074 10082 10090 10100 10104 10112 10122 10136 10149 10163 10177 10191 10209 10230 10253 10269 10288
10323 10300 10280 10259 10237 10216 10197 10179 10162 10147 10134 10123 10112 10103 10092 10084 10076 10072 10067 10063 10061 10060 10065 10062 10048 10046 10050 10059 10064 10075 10081 10086 10096 10108 10121 10133 10145 10159 10177 10194 10214 10233 10252
10296 10273 10252 10229 10209 10188 10170 10154 10138 10124 10112 10103 10092 10082 10072 10064 10057 10051 10045 10042 10039 10036 10039 10041 10028 10029 10028 10035 10040 10050 10059 10065 10072 10083 10096 10107 10119 10132 10146 10163 10182 10201 10215
10266 10245 10223 10200 10181 10160 10146 10130 10116 10104 10092 10083 10073 10063 10053 10046 10039 10032 10026 10022 10019 10017 10016 10017 10013 10009 10011 10015 10021 10028 10039 10047 10051 10060 10072 10081 10091 10104 10118 10134 10156 10170 10179
10238 10218 10196 10174 10156 10139 10123 10108 10095 10083 10073 10063 10054 10043 10035 10029 10023 10016 10011 10004 10001 9998 9997 9997 9997 9994 9995 9996 10004 10009 10016 10026 10032 10039 10048 10058 10069 10080 10091 10104 10119 10138 10155
10217 10196 10175 10154 10135 10119 10104 10090 10077 10064 10056 10047 10037 10025 10018 10013 10006 9999 9993 9989 9984 9979 9980 9981 9980 9979 9980 9981 9987 9993 9995 10005 10014 10019 10028 10038 10047 10057 10068 10079 10096 10117 10126
10189 10171 10152 10132 10115 10100 10086 10072 10061 10051 10041 10033 10023 10011 10002 9996 9989 9982 9977 9973 9969 9965 9964 9964 9964 9964 9965 9969 9972 9977 9982 9988 9995 10003 10009 10016 10027 10038 10048 10058 10076 10088 10102
10164 10145 10129 10113 10097 10083 10070 10057 10044 10035 10026 10019 10009 9998 9990 9982 9975 9968 9962 9958 9955 9952 9950 9950 9951 9951 9952 9956 9959 9964 9967 9971 9978 9986 9993 10001 10011 10021 10031 10043 10054 10063 10078
10143 10125 10108 10092 10079 10066 10053 10041 10029 10018 10009 10002 9994 9985 9977 9969 9961 9954 9949 9945 9942 9940 9939 9939 9938 9939 9941 9945 9948 9951 9953 9959 9967 9975 9978 9986 9997 10008 10016 10025 10034 10043 10055
10123 10107 10091 10077 10063 10050 10037 10027 10017 10005 9994 9986 9980 9972 9965 9957 9950 9944 9939 9935 9932 9931 9930 9929 9929 9929 9931 9934 9938 9941 9944 9951 9958 9962 9962 9973 9986 9993 10002 10010 10019 10027 10037